Total_Precipitation_Accumulation
0.57 0.44 0.53 0.62 0.56 0.58 0.89 0.93 0.84 0.50 0.42 0.44 0.42 0.41 0.41 0.41 0.41 0.40 0.41 0.45 0.51 0.58 0.63 0.68 0.76 0.86 0.94 0.99 1.03 1.06 1.19 1.30 1.39 1.44 1.53 1.55 1.50 1.63 1.80 1.77 1.64 1.55 1.53 1.59
0.53 0.36 0.43 0.51 0.41 0.43 0.51 0.53 0.51 0.38 0.39 0.40 0.37 0.32 0.34 0.38 0.41 0.43 0.45 0.48 0.50 0.57 0.62 0.70 0.78 0.89 1.02 1.05 1.06 1.03 1.09 1.22 1.34 1.43 1.58 1.59 1.52 1.56 1.69 1.77 1.71 1.60 1.53 1.54
0.82 0.40 0.70 0.76 0.49 0.47 0.49 0.49 0.54 0.60 0.51 0.39 0.37 0.36 0.42 0.47 0.49 0.49 0.49 0.51 0.51 0.57 0.64 0.73 0.80 0.90 1.04 1.08 1.07 1.06 1.08 1.16 1.27 1.35 1.53 1.60 1.57 1.62 1.66 1.73 1.81 1.78 1.62 1.49
1.36 0.94 1.27 0.64 0.33 0.37 0.44 0.50 0.56 0.54 0.44 0.43 0.45 0.41 0.41 0.49 0.56 0.56 0.52 0.52 0.52 0.58 0.65 0.70 0.78 0.84 0.93 0.99 1.03 1.11 1.14 1.18 1.25 1.29 1.37 1.53 1.61 1.61 1.62 1.64 1.70 1.74 1.68 1.57
1.99 1.43 0.77 0.35 0.27 0.37 0.51 0.57 0.49 0.44 0.40 0.36 0.34 0.31 0.33 0.35 0.44 0.55 0.55 0.55 0.57 0.62 0.66 0.68 0.72 0.80 0.90 0.95 0.98 1.12 1.22 1.23 1.22 1.19 1.26 1.40 1.51 1.58 1.60 1.61 1.58 1.59 1.56 1.53
2.24 1.74 0.84 0.46 0.27 0.26 0.43 0.71 0.43 0.38 0.41 0.37 0.36 0.49 0.39 0.33 0.41 0.52 0.50 0.53 0.59 0.62 0.61 0.64 0.70 0.76 0.88 0.95 0.94 1.09 1.20 1.25 1.18 1.10 1.10 1.15 1.28 1.46 1.55 1.56 1.50 1.51 1.51 1.47
1.85 1.53 0.68 0.42 0.28 0.31 0.71 0.78 0.40 0.38 0.42 0.43 0.51 0.59 0.46 0.41 0.46 0.51 0.49 0.51 0.55 0.57 0.57 0.67 0.72 0.73 0.84 0.93 1.01 1.08 1.16 1.22 1.14 1.07 1.08 1.10 1.17 1.36 1.49 1.55 1.51 1.45 1.41 1.39
1.36 1.59 0.86 0.40 0.41 0.70 0.81 0.45 0.35 0.33 0.34 0.37 0.36 0.34 0.33 0.38 0.45 0.47 0.44 0.44 0.47 0.52 0.56 0.63 0.70 0.75 0.83 0.93 1.02 1.10 1.16 1.17 1.15 1.13 1.11 1.13 1.18 1.32 1.47 1.54 1.58 1.52 1.42 1.37
1.02 0.88 0.56 0.44 0.56 0.59 0.51 0.42 0.32 0.33 0.31 0.31 0.31 0.31 0.35 0.39 0.42 0.45 0.42 0.42 0.44 0.50 0.53 0.60 0.67 0.75 0.87 0.95 0.97 1.05 1.12 1.17 1.18 1.18 1.16 1.18 1.23 1.32 1.46 1.54 1.58 1.56 1.47 1.38
0.71 0.46 0.37 0.39 0.43 0.43 0.39 0.37 0.32 0.32 0.30 0.29 0.29 0.29 0.33 0.37 0.38 0.40 0.41 0.41 0.43 0.49 0.52 0.60 0.66 0.71 0.81 0.90 0.91 0.92 0.99 1.10 1.12 1.16 1.22 1.27 1.30 1.32 1.42 1.54 1.60 1.50 1.44 1.35
0.63 0.38 0.34 0.33 0.33 0.35 0.30 0.27 0.26 0.27 0.27 0.28 0.29 0.29 0.31 0.35 0.37 0.40 0.46 0.46 0.48 0.51 0.54 0.62 0.68 0.74 0.81 0.83 0.83 0.86 0.90 1.05 1.15 1.18 1.23 1.31 1.34 1.36 1.43 1.44 1.61 1.59 1.45 1.37
0.63 0.40 0.48 0.40 0.31 0.30 0.30 0.28 0.28 0.28 0.28 0.26 0.29 0.33 0.32 0.34 0.37 0.42 0.48 0.51 0.51 0.53 0.58 0.64 0.71 0.80 0.83 0.80 0.80 0.85 0.91 0.99 1.11 1.20 1.21 1.21 1.23 1.30 1.47 1.50 1.55 1.51 1.44 1.41
0.45 0.36 0.36 0.32 0.28 0.28 0.29 0.27 0.27 0.28 0.30 0.29 0.28 0.31 0.35 0.36 0.36 0.40 0.45 0.50 0.58 0.63 0.68 0.70 0.74 0.82 0.84 0.80 0.79 0.83 0.91 0.96 1.05 1.14 1.14 1.11 1.10 1.11 1.23 1.41 1.53 1.52 1.47 1.41
0.26 0.29 0.30 0.25 0.24 0.23 0.23 0.23 0.23 0.24 0.25 0.26 0.27 0.29 0.33 0.35 0.33 0.36 0.43 0.51 0.60 0.64 0.68 0.73 0.78 0.85 0.87 0.82 0.81 0.83 0.88 0.99 1.04 1.07 1.10 1.09 1.09 1.07 1.07 1.18 1.34 1.43 1.47 1.42
0.17 0.21 0.25 0.21 0.19 0.19 0.19 0.19 0.20 0.21 0.21 0.20 0.22 0.26 0.29 0.35 0.36 0.39 0.44 0.51 0.58 0.62 0.66 0.73 0.82 0.91 0.90 0.84 0.83 0.86 0.94 0.99 0.99 1.03 1.07 1.09 1.11 1.14 1.14 1.16 1.21 1.27 1.35 1.49
0.17 0.17 0.19 0.20 0.21 0.20 0.20 0.20 0.21 0.20 0.20 0.21 0.22 0.23 0.27 0.34 0.40 0.45 0.50 0.55 0.62 0.68 0.72 0.77 0.84 0.93 0.90 0.84 0.84 0.87 0.99 1.12 1.09 1.08 1.11 1.13 1.14 1.21 1.26 1.27 1.27 1.25 1.27 1.40
0.27 0.24 0.22 0.21 0.20 0.20 0.21 0.22 0.22 0.22 0.21 0.22 0.23 0.24 0.26 0.31 0.36 0.42 0.49 0.57 0.65 0.71 0.74 0.78 0.85 0.90 0.90 0.89 0.89 0.89 0.96 1.06 1.15 1.12 1.09 1.12 1.16 1.20 1.25 1.31 1.32 1.24 1.18 1.30
0.30 0.29 0.26 0.26 0.24 0.23 0.21 0.20 0.21 0.24 0.25 0.26 0.26 0.28 0.30 0.34 0.39 0.46 0.53 0.58 0.62 0.67 0.73 0.78 0.86 0.90 0.90 0.94 0.93 0.92 0.96 1.03 1.05 1.08 1.10 1.15 1.21 1.21 1.26 1.31 1.29 1.25 1.23 1.31
0.23 0.23 0.22 0.22 0.23 0.23 0.23 0.24 0.25 0.27 0.28 0.29 0.31 0.33 0.34 0.39 0.45 0.51 0.57 0.58 0.60 0.65 0.72 0.78 0.89 0.86 0.86 0.96 1.01 0.98 1.02 1.06 1.08 1.06 1.07 1.20 1.27 1.23 1.25 1.28 1.31 1.29 1.29 1.31
0.23 0.22 0.21 0.20 0.20 0.22 0.25 0.26 0.25 0.26 0.27 0.30 0.33 0.34 0.36 0.40 0.46 0.52 0.57 0.58 0.64 0.73 0.74 0.79 0.81 0.80 0.82 0.94 1.05 1.02 1.06 1.10 1.11 1.08 1.09 1.14 1.20 1.23 1.23 1.26 1.29 1.32 1.33 1.34
0.25 0.22 0.21 0.20 0.20 0.21 0.24 0.26 0.25 0.26 0.26 0.29 0.35 0.40 0.43 0.47 0.51 0.54 0.55 0.55 0.58 0.63 0.66 0.72 0.73 0.79 0.85 0.99 1.09 1.06 1.07 1.08 1.10 1.10 1.11 1.14 1.19 1.22 1.23 1.23 1.26 1.28 1.31 1.34
0.26 0.26 0.24 0.22 0.22 0.24 0.26 0.27 0.29 0.30 0.30 0.31 0.36 0.42 0.46 0.49 0.50 0.51 0.52 0.57 0.59 0.66 0.66 0.64 0.68 0.81 0.92 1.00 1.00 1.01 1.02 1.03 1.06 1.10 1.14 1.16 1.23 1.28 1.25 1.23 1.28 1.28 1.29 1.32
0.27 0.27 0.27 0.28 0.28 0.29 0.27 0.27 0.31 0.36 0.37 0.38 0.42 0.46 0.49 0.50 0.51 0.53 0.55 0.55 0.60 0.69 0.68 0.69 0.78 0.90 0.98 0.93 0.90 0.94 0.96 0.99 1.03 1.08 1.14 1.19 1.23 1.28 1.29 1.28 1.30 1.30 1.35 1.37
0.31 0.29 0.30 0.30 0.31 0.31 0.30 0.30 0.34 0.39 0.43 0.44 0.46 0.49 0.52 0.52 0.51 0.51 0.58 0.65 0.70 0.75 0.71 0.79 0.89 0.94 0.99 0.90 0.86 0.91 0.98 1.03 1.07 1.13 1.18 1.22 1.25 1.29 1.29 1.29 1.31 1.30 1.32 1.34
0.35 0.33 0.32 0.32 0.34 0.37 0.38 0.37 0.36 0.39 0.40 0.44 0.46 0.49 0.54 0.59 0.63 0.63 0.63 0.68 0.75 0.81 0.80 0.87 0.93 0.95 0.91 0.89 0.90 0.95 1.04 1.11 1.19 1.31 1.34 1.30 1.29 1.30 1.26 1.24 1.28 1.32 1.32 1.30
0.40 0.41 0.41 0.41 0.43 0.44 0.44 0.43 0.42 0.40 0.40 0.43 0.48 0.53 0.59 0.63 0.66 0.68 0.69 0.72 0.76 0.83 0.83 0.85 0.89 0.92 0.93 0.98 1.01 1.05 1.13 1.20 1.25 1.26 1.24 1.25 1.25 1.24 1.21 1.20 1.23 1.27 1.29 1.27
0.45 0.44 0.45 0.46 0.48 0.49 0.50 0.51 0.53 0.53 0.51 0.55 0.60 0.61 0.64 0.67 0.71 0.74 0.74 0.76 0.79 0.82 0.85 0.88 0.91 0.97 1.03 1.07 1.11 1.15 1.18 1.20 1.22 1.23 1.21 1.23 1.24 1.22 1.19 1.19 1.21 1.24 1.24 1.22